TimePST,TemperatureF,Dew PointF,Humidity,Sea Level PressureIn,VisibilityMPH,Wind Direction,Wind SpeedMPH,Gust SpeedMPH,PrecipitationIn,Events,Conditions,WindDirDegrees,DateUTC
12:15 AM,28.4,23.0,80,30.18,10.0,Calm,Calm,-,N/A,,Clear,0,2013-02-04 08:15:00
12:35 AM,28.4,23.0,80,30.18,10.0,Calm,Calm,-,N/A,,Clear,0,2013-02-04 08:35:00
12:55 AM,28.4,23.0,80,30.18,10.0,Calm,Calm,-,N/A,,Clear,0,2013-02-04 08:55:00
1:15 AM,28.4,23.0,80,30.18,10.0,Calm,Calm,-,N/A,,Clear,0,2013-02-04 09:15:00
2:55 AM,26.6,23.0,86,30.16,10.0,Calm,Calm,-,N/A,,Clear,0,2013-02-04 10:55:00
3:15 AM,26.6,23.0,86,30.16,10.0,Calm,Calm,-,N/A,,Clear,0,2013-02-04 11:15:00
3:35 AM,26.6,23.0,86,30.16,10.0,Calm,Calm,-,N/A,,Clear,0,2013-02-04 11:35:00
3:55 AM,26.6,23.0,86,30.16,10.0,Calm,Calm,-,N/A,,Clear,0,2013-02-04 11:55:00
4:15 AM,26.6,23.0,86,30.16,10.0,Calm,Calm,-,N/A,,Clear,0,2013-02-04 12:15:00
4:55 AM,26.6,21.2,80,30.16,10.0,Calm,Calm,-,N/A,,Clear,0,2013-02-04 12:55:00
5:15 AM,26.6,21.2,80,30.16,10.0,Calm,Calm,-,N/A,,Clear,0,2013-02-04 13:15:00
5:35 AM,26.6,21.2,80,30.16,10.0,Calm,Calm,-,N/A,,Clear,0,2013-02-04 13:35:00
5:55 AM,26.6,21.2,80,30.16,10.0,Calm,Calm,-,N/A,,Clear,0,2013-02-04 13:55:00
6:15 AM,26.6,23.0,86,30.16,10.0,Calm,Calm,-,N/A,,Clear,0,2013-02-04 14:15:00
6:35 AM,24.8,21.2,86,30.16,10.0,Calm,Calm,-,N/A,,Clear,0,2013-02-04 14:35:00
6:55 AM,24.8,21.2,86,30.17,10.0,Calm,Calm,-,N/A,,Clear,0,2013-02-04 14:55:00
7:15 AM,26.6,23.0,86,30.17,10.0,Calm,Calm,-,N/A,,Clear,0,2013-02-04 15:15:00
7:35 AM,26.6,23.0,86,30.17,10.0,Calm,Calm,-,N/A,,Clear,0,2013-02-04 15:35:00
7:55 AM,28.4,24.8,86,30.18,10.0,Calm,Calm,-,N/A,,Clear,0,2013-02-04 15:55:00
8:15 AM,32.0,26.6,80,30.19,10.0,Calm,Calm,-,N/A,,Clear,0,2013-02-04 16:15:00
8:35 AM,32.0,26.6,80,30.20,10.0,Calm,Calm,-,N/A,,Clear,0,2013-02-04 16:35:00
8:55 AM,35.6,26.6,70,30.20,10.0,Calm,Calm,-,N/A,,Clear,0,2013-02-04 16:55:00
9:15 AM,41.0,28.4,61,30.20,10.0,East,4.6,-,N/A,,Clear,80,2013-02-04 17:15:00
9:35 AM,44.6,23.0,43,30.20,10.0,ENE,6.9,-,N/A,,Clear,70,2013-02-04 17:35:00
9:55 AM,44.6,21.2,39,30.21,10.0,East,5.8,-,N/A,,Clear,80,2013-02-04 17:55:00
10:15 AM,46.4,21.2,37,30.21,10.0,East,6.9,-,N/A,,Clear,80,2013-02-04 18:15:00
10:35 AM,46.4,21.2,37,30.20,10.0,East,5.8,-,N/A,,Clear,80,2013-02-04 18:35:00
10:55 AM,48.2,19.4,32,30.20,10.0,ENE,9.2,-,N/A,,Clear,70,2013-02-04 18:55:00
11:15 AM,48.2,21.2,34,30.19,10.0,East,9.2,-,N/A,,Clear,90,2013-02-04 19:15:00
11:35 AM,48.2,21.2,34,30.19,10.0,East,8.1,-,N/A,,Clear,80,2013-02-04 19:35:00
11:55 AM,50.0,19.4,30,30.18,10.0,East,8.1,-,N/A,,Clear,90,2013-02-04 19:55:00
12:15 PM,50.0,17.6,28,30.17,10.0,NE,3.5,-,N/A,,Clear,50,2013-02-04 20:15:00
12:35 PM,50.0,19.4,30,30.16,10.0,East,6.9,-,N/A,,Clear,90,2013-02-04 20:35:00
12:55 PM,51.8,15.8,24,30.15,10.0,NE,6.9,-,N/A,,Clear,50,2013-02-04 20:55:00
1:15 PM,50.0,19.4,30,30.14,10.0,ENE,11.5,16.1,N/A,,Clear,60,2013-02-04 21:15:00
1:35 PM,50.0,21.2,32,30.13,10.0,NE,10.4,-,N/A,,Clear,50,2013-02-04 21:35:00
1:55 PM,50.0,19.4,30,30.13,10.0,Calm,Calm,-,N/A,,Clear,0,2013-02-04 21:55:00
2:15 PM,51.8,17.6,26,30.12,10.0,East,6.9,-,N/A,,Clear,80,2013-02-04 22:15:00
2:35 PM,51.8,19.4,28,30.12,10.0,East,5.8,-,N/A,,Clear,80,2013-02-04 22:35:00
2:55 PM,50.0,17.6,28,30.12,10.0,NE,5.8,-,N/A,,Clear,50,2013-02-04 22:55:00
3:15 PM,50.0,19.4,30,30.12,10.0,NE,6.9,-,N/A,,Clear,50,2013-02-04 23:15:00
3:35 PM,50.0,17.6,28,30.12,10.0,North,5.8,-,N/A,,Clear,10,2013-02-04 23:35:00
3:55 PM,50.0,17.6,28,30.12,10.0,East,5.8,-,N/A,,Clear,100,2013-02-04 23:55:00
4:15 PM,46.4,19.4,34,30.12,10.0,ESE,5.8,-,N/A,,Clear,120,2013-02-05 00:15:00
4:35 PM,46.4,15.8,29,30.13,10.0,East,4.6,-,N/A,,Clear,90,2013-02-05 00:35:00
4:55 PM,46.4,14.0,27,30.13,10.0,North,4.6,-,N/A,,Clear,10,2013-02-05 00:55:00
5:15 PM,44.6,19.4,37,30.13,10.0,North,4.6,-,N/A,,Clear,10,2013-02-05 01:15:00
5:35 PM,42.8,19.4,39,30.13,10.0,Calm,Calm,-,N/A,,Clear,0,2013-02-05 01:35:00
5:55 PM,37.4,21.2,52,30.14,10.0,Calm,Calm,-,N/A,,Clear,0,2013-02-05 01:55:00
6:15 PM,37.4,21.2,52,30.15,10.0,Calm,Calm,-,N/A,,Clear,0,2013-02-05 02:15:00
6:35 PM,33.8,21.2,60,30.15,10.0,Calm,Calm,-,N/A,,Clear,0,2013-02-05 02:35:00
6:55 PM,32.0,21.2,64,30.16,10.0,Calm,Calm,-,N/A,,Clear,0,2013-02-05 02:55:00
7:15 PM,32.0,23.0,69,30.16,10.0,Calm,Calm,-,N/A,,Clear,0,2013-02-05 03:15:00
7:35 PM,30.2,21.2,69,30.16,10.0,Calm,Calm,-,N/A,,Clear,0,2013-02-05 03:35:00
7:55 PM,30.2,21.2,69,30.17,10.0,Calm,Calm,-,N/A,,Clear,0,2013-02-05 03:55:00
8:15 PM,28.4,21.2,74,30.17,10.0,Calm,Calm,-,N/A,,Clear,0,2013-02-05 04:15:00
8:35 PM,28.4,21.2,74,30.17,10.0,Calm,Calm,-,N/A,,Clear,0,2013-02-05 04:35:00
8:55 PM,28.4,21.2,74,30.17,10.0,Calm,Calm,-,N/A,,Clear,0,2013-02-05 04:55:00
9:15 PM,28.4,21.2,74,30.18,10.0,Calm,Calm,-,N/A,,Clear,0,2013-02-05 05:15:00
9:35 PM,26.6,19.4,74,30.17,10.0,Calm,Calm,-,N/A,,Clear,0,2013-02-05 05:35:00
9:55 PM,26.6,19.4,74,30.17,10.0,Calm,Calm,-,N/A,,Clear,0,2013-02-05 05:55:00
10:15 PM,26.6,19.4,74,30.17,10.0,Calm,Calm,-,N/A,,Clear,0,2013-02-05 06:15:00
10:35 PM,26.6,19.4,74,30.17,10.0,Calm,Calm,-,N/A,,Clear,0,2013-02-05 06:35:00
10:55 PM,26.6,19.4,74,30.17,10.0,Calm,Calm,-,N/A,,Clear,0,2013-02-05 06:55:00
11:15 PM,26.6,17.6,69,30.17,10.0,Calm,Calm,-,N/A,,Clear,0,2013-02-05 07:15:00
11:35 PM,26.6,17.6,69,30.17,10.0,Calm,Calm,-,N/A,,Clear,0,2013-02-05 07:35:00
11:55 PM,24.8,17.6,74,30.17,10.0,Calm,Calm,-,N/A,,Clear,0,2013-02-05 07:55:00